Regional Weather Roundup
Issued by NWS

Home | Current Version | Previous Version | Graphics & Text | Print | Product List | Glossary On
Versions: 1 2 3 4 5 6 7 8 9 10 11 12 13 14 15 16 17 18 19 20 21 22 23 24 25 26 27 28 29 30 31 32 33 34 35 36 37 38 39 40 41 42 43 44 45 46 47 48 49 50
000
ASUS43 KOAX 232310
RWRNE

WEATHER ROUNDUP FOR NEBRASKA
NATIONAL WEATHER SERVICE OMAHA NE
600 PM CDT TUE MAY 23 2017

NOTES: SATELLITE DATA IS BEING USED TO AUGMENT CLOUD COVER ABOVE
       12000 FEET.
       "FAIR" INDICATES FEW OR NO CLOUDS BELOW 12,000 FEET WITH NO
       SIGNIFICANT WEATHER AND/OR OBSTRUCTIONS TO VISIBILITY.

  * THESE STATIONS DO NOT REPORT WEATHER SUCH AS RAIN...SNOW OR FOG.

NEZ001>004-019>022-054>056-240000-
NEBRASKA PANHANDLE

CITY           SKY/WX    TMP DP  RH WIND       PRES   REMARKS
SCOTTSBLUFF    PTSUNNY   63  31  30 N21G28    30.05F
ALLIANCE       PTSUNNY   60  36  40 N21G29    30.04F
CHADRON        SUNNY     62  38  40 NE18G25   30.05F
GORDON         MOCLDY    57  36  44 N18G24    30.04S
KIMBALL        CLOUDY    59  31  34 N15G24    30.08F
SIDNEY         MOSUNNY   59  36  42 N17G30    30.05F
$$

NEZ057>060-069>072-079>082-240000-
SOUTHWEST NEBRASKA

CITY           SKY/WX    TMP DP  RH WIND       PRES   REMARKS
NORTH PLATTE   CLOUDY    59  36  42 N24       29.99F
IMPERIAL       MOSUNNY   59  33  37 N16G32    30.01F
LEXINGTON      CLOUDY    56  40  54 N21       29.97F
MCCOOK         CLOUDY    61  36  39 N25G35    29.99S
OGALLALA       SUNNY     63  32  31 N28G33    30.02F
$$

NEZ005>010-023>029-035>040-094-240000-
NORTH CENTRAL NEBRASKA

CITY           SKY/WX    TMP DP  RH WIND       PRES   REMARKS
VALENTINE      CLOUDY    55  38  52 N13       30.00S
AINSWORTH      CLOUDY    56  43  62 N20G25    29.98S
BROKEN BOW     CLOUDY    55  40  56 N24G36    29.96S
O`NEILL        DRIZZLE   51  43  72 NW16G23   29.95F
ORD            CLOUDY    53  39  59 N18G30    29.93F
THEDFORD       CLOUDY    57  37  46 N21G26    29.99F
$$

NEZ041-046>049-061>064-073>077-083>087-240000-
SOUTH CENTRAL NEBRASKA

CITY           SKY/WX    TMP DP  RH WIND       PRES   REMARKS
GRAND ISLAND   CLOUDY    54  42  64 NW20      29.92F
AURORA         CLOUDY    55  40  56 N17       29.91F
HASTINGS       CLOUDY    54  41  61 N17       29.93F
HEBRON         PTSUNNY   57  43  58 N18G29    29.90S
HOLDREGE       CLOUDY    55  38  52 N18G28    29.96S
KEARNEY *      CLOUDY    55  37  50 N21G30    29.95S
YORK           PTSUNNY   55  41  58 NW16G24   29.90S
$$

NEZ011>018-030>034-042>045-240000-
NORTHEAST NEBRASKA

CITY           SKY/WX    TMP DP  RH WIND       PRES   REMARKS
NORFOLK        CLOUDY    54  43  66 NW21G29   29.87S
ALBION         CLOUDY    55  41  58 N18G29    29.91S
BLAIR          HVY RAIN  53  46  77 N15       29.84R
FREMONT        CLOUDY    56  44  66 NW16G23   29.86R
TEKAMAH        CLOUDY    57  47  69 NW20      29.83S
WAYNE          CLOUDY    55  47  74 NW15G28   29.86S
$$

NEZ050>053-065>068-078-088>093-240000-
SOUTHEAST NEBRASKA

CITY           SKY/WX    TMP DP  RH WIND       PRES   REMARKS
LINCOLN        CLOUDY    55  49  80 NW10      29.88R
OMAHA EPPLEY   LGT RAIN  54  47  77 NW17      29.83S
BEATRICE       CLOUDY    57  45  64 N23G29    29.87S
FALLS CITY     CLOUDY    59  45  59 NW8       29.82S
NEBRASKA CITY  CLOUDY    57  44  61 N12       29.84S
PLATTSMOUTH    CLOUDY    56  43  60 NW15      29.84S
$$

NEZ044-045-051>053-067-240000-
OMAHA AREA

CITY           SKY/WX    TMP DP  RH WIND       PRES   REMARKS
OMAHA EPPLEY   LGT RAIN  54  47  77 NW17      29.83S
BLAIR          HVY RAIN  53  46  77 N15       29.84R
FREMONT        CLOUDY    56  44  66 NW16G23   29.86R
MILLARD        LGT RAIN  55  51  85 NW8       29.84S
OFFUTT AFB     CLOUDY    60  45  59 NW15      29.82S
PLATTSMOUTH    CLOUDY    56  43  60 NW15      29.84S
WAHOO          CLOUDY    57  44  60 NW17G25   29.85F
$$



USA.gov is the U.S. government's official web portal to all federal, state and local government web resources and services.